Location: Sungai Bunut
(2.6333°N, 113.7333°E)
Time: 15:47:40
(UTC+00:00)

Vanguard 3 - Pass Details

Date: 11 December 2023
Orbit: 508 x 3239 km, 33.4° (Epoch: 28 February)

Event Time Altitude Azimuth Distance (km) Brightness Sun altitude
Rises 18:31:09 0° 325° (NW) 3,770 - -51.9°
Reaches altitude 10° 18:35:25 10° 347° (NNW) 2,354 - -51.1°
Maximum altitude 18:38:22 15° 22° (NNE) 1,773 - -50.4°
Drops below altitude 10° 18:40:49 10° 58° (ENE) 1,897 - -49.9°
Sets 18:43:39 0° 85° (E) 2,646 - -49.3°
